Skip Page Navigation
NASA JPL Caltech
NASA Logo - Jet Propulsion Laboratory + View the NASA Portal
+ Center for Near-Earth Object Studies
JPL Home Earth Solar System Stars & Galaxies Technology
JPL Solar System Dynamics
BODIES ORBITS EPHEMERIDES TOOLS PHYSICAL DATA DISCOVERY FAQ SITE MAP
IMPORTANT: The SSD Announcement email list is now available. Major changes are coming in the near future, including possible hostname and/or URL changes. To be notified of such changes, subscribe to this email list.

Please visit this page for more details.


JPL Small-Body Database Browser
Search: [ help ]  
452802 (2006 JE56)
Classification: Main-belt Asteroid          SPK-ID: 2452802
Ephemeris | Orbit Diagram | Orbital Elements | Mission Design | Physical Parameters | Discovery Circumstances | Close-Approach Data ]

[ show orbit diagram ]
Orbital Elements at Epoch 2458600.5 (2019-Apr-27.0) TDB
Reference: JPL 12 (heliocentric ecliptic J2000)
 Element Value Uncertainty (1-sigma)   Units 
e .2249964330643724 6.8786e-08  
a 3.087414214757305 6.1853e-08 au
q 2.392757029044671 2.2118e-07 au
i 17.75606413476808 1.3784e-05 deg
node 102.3638076380863 2.2739e-05 deg
peri 95.11995139292821 4.8405e-05 deg
M 156.9783635938893 3.3466e-05 deg
tp 2457736.471490601072
(2016-Dec-13.97149060)
0.00018502 TDB
period 1981.484940104971
5.43
5.9545e-05
1.63e-07
d
yr
n .1816819258696605 5.4597e-09 deg/d
Q 3.782071400469938 7.577e-08 au
  Orbit Determination Parameters
   # obs. used (total)      110  
   data-arc span      4130 days (11.31 yr)  
   first obs. used      2006-04-02  
   last obs. used      2017-07-23  
   planetary ephem.      DE431  
   SB-pert. ephem.      SB431-N16  
   condition code      0  
   norm. resid. RMS      .60666  
   source      ORB  
   producer      Otto Matic  
   solution date      2019-Jul-14 07:20:08  

Additional Information
 Earth MOID = 1.46916 au 
 Jupiter MOID = 1.681 au 
 T_jup = 3.115 
[ hide covariance matrix ]
Orbital Elements at Epoch 2457266.5 (2015-Sep-01.0) TDB
Reference: JPL 12 (heliocentric ecliptic J2000)
 Element Value Uncertainty (1-sigma)   Units 
e .2254534466699414 6.8957e-08  
q 2.390537995872808 2.2248e-07 au
tp 2457737.603870621417
(2016-Dec-15.10387062)
0.00018417 TDB
node 102.4170034592746 2.2739e-05 deg
peri 95.29468674568821 4.8247e-05 deg
i 17.76011275207863 1.3785e-05 deg
  Orbit Determination Parameters
   # obs. used (total)      110  
   data-arc span      4130 days (11.31 yr)  
   first obs. used      2006-04-02  
   last obs. used      2017-07-23  
   planetary ephem.      DE431  
   SB-pert. ephem.      SB431-N16  
   condition code      0  
   norm. resid. RMS      .60666  
   source      ORB  
   producer      Otto Matic  
   solution date      2019-Jul-14 07:20:08  

Additional Information
 Jupiter MOID = 1.681 au 
 T_jup = 3.115 
Orbit Covariance (6×6)
  e q tp node peri i
e 4.755040282645518E-15 -1.498044456180233E-14 7.387991308908453E-12 -6.02052957678883E-14 1.77771966341612E-12 -3.201090880702946E-14
q -1.498044456180233E-14 4.949730801123931E-14 -2.389218038416447E-11 1.976466295655523E-13 -5.873498994268385E-12 1.104541707698601E-13
tp 7.387991308908453E-12 -2.389218038416447E-11 3.391702079832502E-8 -2.34486424463353E-10 7.850295745439628E-9 -7.753454150497981E-11
node -6.02052957678883E-14 1.976466295655523E-13 -2.34486424463353E-10 5.170513531641097E-10 -5.447210779883919E-10 -9.088256619464363E-11
peri 1.77771966341612E-12 -5.873498994268385E-12 7.850295745439628E-9 -5.447210779883919E-10 2.327740923610351E-9 6.780592352539064E-11
i -3.201090880702946E-14 1.104541707698601E-13 -7.753454150497981E-11 -9.088256619464363E-11 6.780592352539064E-11 1.900194520408832E-10

Ephemeris | Orbit Diagram | Orbital Elements | Mission Design | Physical Parameters | Discovery Circumstances | Close-Approach Data ]

Physical Parameter Table
Parameter Symbol Value Units Sigma Reference Notes
absolute magnitude H 16.1   n/a MPO419207  

452802 (2006 JE56)          Discovered 2006-Apr-02 by LONEOS at Anderson Mesa
Reference: Last Updated: 2016-01-04

[ show close-approach data ]
Ephemeris | Orbit Diagram | Orbital Elements | Mission Design | Physical Parameters | Discovery Circumstances | Close-Approach Data ]
ABOUT SSD CREDITS/AWARDS PRIVACY/COPYRIGHT GLOSSARY LINKS
FirstGov 2020-Jan-19 18:59 UT
(server date/time)  
NASA Home Page
Site Manager:   Ryan S. Park
Webmaster  Alan B. Chamberlin